Location: Home
(42.5358°N, 72.7383°W)
Time: 09:32:11
(UTC-04:00)

A-11 Canister half - Pass Details

Date: 28 June 2022
Orbit: 1514 x 1685 km, 47.2° (Epoch: 15 August)

Event Time Altitude Azimuth Distance (km) Brightness Sun altitude
Rises 02:38:42 0° 275° (W) 4,927 11.4 -19.9°
Reaches altitude 10° 02:41:57 10° 278° (W) 3,927 10.9 -19.7°
Maximum altitude 02:51:59 67° 1° (N) 1,747 9.4 -18.8°
Drops below altitude 10° 03:01:41 10° 84° (E) 3,803 11.6 -17.9°
Sets 03:04:47 0° 87° (E) 4,764 12.1 -17.6°
